Lake Hartwell Weather Center

Moon Phase Calendar



Lake Hartwell Water Level
Online Cameras

 


      

Current Conditions in Centerville
6/20/2021 6:42:04 AM

69°F
Feels Like 70
Rain
Humidity
98%
Pressure
29.88"
Wind
4.6 mph (E)
Dew Point
69°F
UV Index
0/10 (Low)
Visibility
6 mi

Hourly Forecast

Date & Time Sun, Jun 20
6:00 AM
Sun, Jun 20
7:00 AM
Sun, Jun 20
8:00 AM
Sun, Jun 20
9:00 AM
Sun, Jun 20
10:00 AM
Sun, Jun 20
11:00 AM
Sun, Jun 20
12:00 PM
Sun, Jun 20
1:00 PM
Sun, Jun 20
2:00 PM
Sun, Jun 20
3:00 PM
Sun, Jun 20
4:00 PM
Sun, Jun 20
5:00 PM
Sun, Jun 20
6:00 PM
Sun, Jun 20
7:00 PM
Sun, Jun 20
8:00 PM
Sun, Jun 20
9:00 PM
Sun, Jun 20
10:00 PM
Sun, Jun 20
11:00 PM
Mon, Jun 21
12:00 AM
Mon, Jun 21
1:00 AM
Mon, Jun 21
2:00 AM
Mon, Jun 21
3:00 AM
Mon, Jun 21
4:00 AM
Mon, Jun 21
5:00 AM
Mon, Jun 21
6:00 AM
Mon, Jun 21
7:00 AM
Mon, Jun 21
8:00 AM
Mon, Jun 21
9:00 AM
Mon, Jun 21
10:00 AM
Mon, Jun 21
11:00 AM
Mon, Jun 21
12:00 PM
Mon, Jun 21
1:00 PM
Mon, Jun 21
2:00 PM
Mon, Jun 21
3:00 PM
Mon, Jun 21
4:00 PM
Mon, Jun 21
5:00 PM
Mon, Jun 21
6:00 PM
Mon, Jun 21
7:00 PM
Mon, Jun 21
8:00 PM
Mon, Jun 21
9:00 PM
Mon, Jun 21
10:00 PM
Mon, Jun 21
11:00 PM
Tue, Jun 22
12:00 AM
Tue, Jun 22
1:00 AM
Tue, Jun 22
2:00 AM
Tue, Jun 22
3:00 AM
Tue, Jun 22
4:00 AM
Tue, Jun 22
5:00 AM
Condition
Rain

Rain

Rain

Clouds

Rain

Rain

Rain

Rain

Rain

Rain

Rain

Rain

Rain

Rain

Clouds

Clouds

Clouds

Clouds

Clouds

Clouds

Clouds

Clear

Clear

Clear

Clear

Clear

Clear

Clear

Clear

Clear

Clear

Clear

Clouds

Clouds

Clouds

Clouds

Rain

Clouds

Rain

Clouds

Clouds

Clouds

Clouds

Clouds

Clouds

Rain

Clouds

Rain
Temperature 69°F69°F69°F70°F70°F72°F74°F76°F77°F77°F77°F76°F75°F75°F73°F70°F69°F69°F69°F68°F68°F68°F68°F68°F67°F68°F72°F76°F81°F85°F88°F91°F91°F87°F90°F84°F78°F81°F78°F75°F74°F73°F73°F73°F72°F70°F69°F68°F
Feels Like 70°F70°F71°F71°F72°F73°F75°F77°F78°F79°F78°F77°F76°F76°F75°F71°F70°F70°F70°F69°F69°F69°F69°F69°F68°F69°F73°F77°F85°F89°F93°F94°F94°F90°F93°F88°F79°F84°F79°F77°F75°F74°F74°F73°F73°F70°F70°F69°F
Cloudiness 92%90%92%94%96%97%94%93%92%72%86%90%93%94%89%38%26%22%18%15%12%2%3%3%2%2%2%0%0%0%0%0%11%98%99%99%100%100%100%100%100%100%100%100%100%100%100%100%
Visibility 0 mi0 mi6 mi6 mi6 mi3 mi3 mi3 mi4 mi4 mi4 mi6 mi6 mi6 mi6 mi6 mi6 mi6 mi6 mi6 mi6 mi6 mi6 mi6 mi6 mi6 mi6 mi6 mi6 mi6 mi6 mi6 mi6 mi6 mi6 mi6 mi6 mi6 mi6 mi6 mi6 mi6 mi6 mi6 mi6 mi6 mi6 mi6 mi
Precipitation 97%97%94%87%95%100%100%100%100%98%98%98%97%97%77%23%19%8%4%0%0%0%0%0%0%0%0%0%0%0%0%0%6%15%11%11%32%19%35%19%12%13%5%5%11%56%71%87%
Humidity 99%98%98%97%96%93%89%84%83%83%83%85%89%87%93%97%97%98%97%97%97%98%97%97%97%97%90%82%70%62%55%46%46%53%45%59%74%70%78%84%85%86%80%80%81%90%91%96%
Dew Point 69°F69°F69°F69°F69°F70°F70°F71°F72°F72°F71°F71°F71°F71°F71°F69°F68°F68°F68°F67°F67°F67°F67°F67°F66°F67°F69°F70°F70°F71°F70°F68°F67°F68°F66°F68°F69°F70°F70°F70°F69°F69°F67°F66°F66°F66°F66°F66°F
Pressure 29.88"29.88"29.88"29.88"29.88"29.88"29.88"29.85"29.85"29.83"29.83"29.83"29.8"29.83"29.83"29.85"29.85"29.85"29.85"29.85"29.85"29.85"29.85"29.85"29.85"29.88"29.88"29.88"29.88"29.88"29.88"29.85"29.83"29.83"29.8"29.83"29.83"29.83"29.85"29.85"29.85"29.88"29.88"29.88"29.88"29.88"29.88"29.85"
Wind Speed 6.8 mph6.8 mph6.9 mph7.4 mph8.6 mph8.8 mph9.1 mph8.2 mph8.4 mph6.6 mph4.5 mph3 mph3.1 mph4.5 mph4.4 mph2.8 mph2.5 mph2.6 mph3.5 mph1.9 mph3.4 mph4.6 mph4.2 mph4.8 mph6.1 mph4.8 mph5.1 mph6.7 mph8.8 mph10.4 mph10.7 mph12.5 mph15.7 mph12 mph12 mph15.7 mph8.6 mph10.2 mph12 mph11.7 mph10.4 mph11.4 mph13.5 mph13 mph13.5 mph12.1 mph11 mph9.8 mph
Wind
Direction
113°
ESE
134°
SE
141°
SE
132°
SE
148°
SSE
159°
SSE
165°
SSE
158°
SSE
166°
SSE
160°
SSE
140°
SE
117°
ESE
83°
E
78°
ENE
87°
E
80°
E
57°
ENE
26°
NNE
308°
NW
319°
NW
267°
W
254°
WSW
257°
WSW
249°
WSW
239°
WSW
245°
WSW
255°
WSW
249°
WSW
246°
WSW
246°
WSW
248°
WSW
240°
WSW
239°
WSW
248°
WSW
246°
WSW
232°
SW
238°
WSW
239°
WSW
251°
WSW
249°
WSW
250°
WSW
239°
WSW
247°
WSW
254°
WSW
253°
WSW
256°
WSW
244°
WSW
215°
SW

Daily Forecast

Date High Low Precip. Humidity
Today
Jun 20

Rain
77 °F
67 °F
100%
84%
Monday
Jun 21

Rain
91 °F
67 °F
35%
46%
Tuesday
Jun 22

Rain
81 °F
68 °F
99%
62%
Wednesday
Jun 23

Rain
82 °F
66 °F
20%
53%
Thursday
Jun 24

Clouds
88 °F
63 °F
0%
46%
Friday
Jun 25

Clouds
90 °F
65 °F
0%
45%
Saturday
Jun 26

Rain
88 °F
69 °F
83%
47%
Sunday
Jun 27

Rain
75 °F
69 °F
100%
87%
Monday
Jun 28

Rain
85 °F
67 °F
100%
60%
Tuesday
Jun 29

Rain
76 °F
68 °F
100%
92%
Wednesday
Jun 30

Rain
73 °F
69 °F
100%
96%
Thursday
Jul 1

Rain
77 °F
69 °F
80%
89%
Friday
Jul 2

Rain
80 °F
68 °F
92%
94%
Saturday
Jul 3

Rain
93 °F
72 °F
90%
55%
Sunday
Jul 4

Rain
92 °F
73 °F
99%
51%
Monday
Jul 5

Rain
91 °F
73 °F
95%
51%

Temperature 8-14 Day Outlook



Precipitation 8-14 Day Outlook




Quick Links
Lake Hartwell News
Lake Hartwell Photos
Lake Hartwell Videos




About Us
Contact Us
Site Map
Search Site
Advertise With Us
   
www.MyLakeHartwell.com
THE LAKE HARTWELL WEBSITE

Copyright 2021, Lakes Online
Privacy    |    Legal